Regional Weather Roundup
Issued by NWS Spokane, WA

Home | Current Version | Previous Version | Text Only | Print | Product List | Glossary On
Versions: 1 2 3 4 5 6 7 8 9 10 11 12 13 14 15 16 17 18 19 20 21 22 23 24 25 26 27 28 29 30 31 32 33 34 35 36 37 38 39 40 41 42 43 44 45 46 47 48 49 50
000
NZUS01 KOTX 261910
RWROTX
EASTERN WASHINGTON/NORTHERN IDAHO ROUNDUP
NATIONAL WEATHER SERVICE, SPOKANE WA
1100 AM PST FRI DEC 26 2014

Note: "fair" indicated few or no clouds below 12,000 feet with no
significant weather and/or obstructions to visibility.

...NORTHEAST WASHINGTON AND NORTHERN IDAHO PANHANDLE...

CITY           SKY/WX    TMP DP  RH WIND       PRES   REMARKS
SPOKANE INTL   FOG       24  23  96 CALM      30.24R VSB 1/4
SPOKANE DOWNTO CLOUDY    26  24  92 CALM      30.28R FOG
COEUR D ALENE  CLOUDY    27  23  86 N5        30.24S WCI  21
DEER PARK      CLOUDY    25  24  96 CALM      30.26S
SANDPOINT      FAIR      32  30  93 S3        30.25R

...SOUTHEAST WASHINGTON AND SOUTHERN IDAHO PANHANDLE...

CITY           SKY/WX    TMP DP  RH WIND       PRES   REMARKS
WALLA WALLA    FAIR      40  31  70 S8        30.32S
PULLMAN/MOSCOW PTSUNNY   31  27  85 W9        30.26R WCI  23
LEWISTON       CLOUDY    37  30  75 S5        30.28S
LOWELL           N/A     36  34  92 VRB3      30.28S

...COLUMBIA BASIN...

CITY           SKY/WX    TMP DP  RH WIND       PRES   REMARKS
EPHRATA        FAIR      41  24  51 NE5       30.29S
MOSES LAKE     FAIR      37  25  61 CALM      30.31S
TRI CITIES     FAIR      38  32  79 E3        30.35F
HERMISTON      FAIR      38  32  79 CALM      30.35S
PENDLETON      FAIR      37  29  72 VRB3      30.31S

...EAST SLOPES CASCADES...

CITY           SKY/WX    TMP DP  RH WIND       PRES   REMARKS
THE DALLES     FAIR      42  35  76 CALM      30.36S
YAKIMA         FAIR      39  26  59 CALM      30.32S
ELLENSBURG     FAIR      38  25  59 CALM      30.28S
WENATCHEE      FAIR      36  24  62 W8        30.31S
OMAK           FAIR      32  24  72 S3        30.31S

...SOUTHERN BRITISH COLUMBIA...

CITY           SKY/WX    TMP DP  RH WIND       PRES   REMARKS
PENTICTON      PTSUNNY   34  30  86 S10       30.30F WCI  26
CASTLEGAR      PTSUNNY   28  23  80 VRB2      30.30S
CRANBROOK      MOSUNNY   19  12  73 CALM      30.20R

...WESTERN MONTANA...

CITY           SKY/WX    TMP DP  RH WIND       PRES   REMARKS
MISSOULA       FAIR      24  23  96 S3        30.16S

...NEIGHBORING CITIES...

CITY           SKY/WX    TMP DP  RH WIND       PRES   REMARKS
SEATTLE        FOG       36  34  92 CALM      30.39R VSB 1/2



USA.gov is the U.S. government's official web portal to all federal, state and local government web resources and services.